Time,TemperatureF,DewpointF,PressureIn,WindDirection,WindDirectionDegrees,WindSpeedMPH,WindSpeedGustMPH,Humidity,HourlyPrecipIn,Conditions,Clouds,dailyrainin,SoftwareType,DateUTC
2019-01-18 00:00:17,40.8,40.0,29.86,SSE,157,0.0,0.0,98,0.03,,,0.00,weatherlink.com 1.10,2019-01-17 23:00:17,
2019-01-18 00:05:19,40.8,40.0,29.85,SSE,157,0.0,0.0,98,0.04,,,0.01,weatherlink.com 1.10,2019-01-17 23:05:19,
2019-01-18 00:10:20,40.8,40.0,29.85,SSE,157,0.0,0.0,98,0.03,,,0.01,weatherlink.com 1.10,2019-01-17 23:10:20,
2019-01-18 00:15:21,40.8,40.0,29.85,SSE,157,0.0,0.0,98,0.04,,,0.02,weatherlink.com 1.10,2019-01-17 23:15:21,
2019-01-18 00:20:22,40.8,40.0,29.84,SSE,157,0.0,0.0,98,0.05,,,0.02,weatherlink.com 1.10,2019-01-17 23:20:22,
2019-01-18 00:25:23,40.9,40.0,29.84,SSE,157,0.0,0.0,98,0.05,,,0.02,weatherlink.com 1.10,2019-01-17 23:25:23,
2019-01-18 00:30:24,40.8,40.0,29.84,SSE,157,0.0,0.0,98,0.05,,,0.02,weatherlink.com 1.10,2019-01-17 23:30:24,
2019-01-18 00:35:24,40.8,40.0,29.84,SSE,157,0.0,0.0,98,0.04,,,0.02,weatherlink.com 1.10,2019-01-17 23:35:24,
2019-01-18 00:40:24,40.7,40.0,29.84,SSE,157,0.0,0.0,98,0.05,,,0.03,weatherlink.com 1.10,2019-01-17 23:40:24,
2019-01-18 00:45:25,40.6,40.0,29.84,SSE,157,0.0,0.0,98,0.05,,,0.03,weatherlink.com 1.10,2019-01-17 23:45:25,
2019-01-18 00:50:26,40.6,40.0,29.84,SSE,157,0.0,0.0,98,0.04,,,0.03,weatherlink.com 1.10,2019-01-17 23:50:26,
2019-01-18 00:55:26,40.6,40.0,29.84,SSE,157,0.0,0.0,98,0.04,,,0.03,weatherlink.com 1.10,2019-01-17 23:55:26,
2019-01-18 01:00:26,40.7,40.0,29.84,SSE,157,0.0,0.0,98,0.03,,,0.03,weatherlink.com 1.10,2019-01-18 00:00:26,
2019-01-18 01:05:26,40.7,40.0,29.84,SSE,157,0.0,0.0,98,0.02,,,0.03,weatherlink.com 1.10,2019-01-18 00:05:26,
2019-01-18 01:10:27,40.7,40.0,29.84,SSE,157,0.0,0.0,98,0.02,,,0.03,weatherlink.com 1.10,2019-01-18 00:10:27,
2019-01-18 01:15:27,40.7,40.0,29.83,SSE,157,0.0,0.0,98,0.02,,,0.03,weatherlink.com 1.10,2019-01-18 00:15:27,
2019-01-18 01:20:27,40.7,40.0,29.83,SSE,157,0.0,0.0,98,0.02,,,0.04,weatherlink.com 1.10,2019-01-18 00:20:27,
2019-01-18 01:25:28,40.8,40.0,29.83,SSE,157,0.0,0.0,98,0.02,,,0.04,weatherlink.com 1.10,2019-01-18 00:25:28,
2019-01-18 01:30:29,40.9,40.0,29.83,SSE,157,0.0,0.0,98,0.02,,,0.04,weatherlink.com 1.10,2019-01-18 00:30:29,
2019-01-18 01:35:29,40.9,40.0,29.83,SSE,157,0.0,0.0,98,0.02,,,0.04,weatherlink.com 1.10,2019-01-18 00:35:29,
2019-01-18 01:40:30,41.0,41.0,29.82,SSE,157,0.0,0.0,98,0.01,,,0.04,weatherlink.com 1.10,2019-01-18 00:40:30,
2019-01-18 01:45:30,40.9,40.0,29.82,SSE,157,0.0,0.0,98,0.02,,,0.05,weatherlink.com 1.10,2019-01-18 00:45:30,
2019-01-18 01:50:31,40.9,40.0,29.82,SSE,157,0.0,0.0,98,0.02,,,0.05,weatherlink.com 1.10,2019-01-18 00:50:31,
2019-01-18 01:55:31,40.9,40.0,29.82,SSE,157,0.0,0.0,98,0.02,,,0.05,weatherlink.com 1.10,2019-01-18 00:55:31,
2019-01-18 02:00:32,40.8,40.0,29.82,SSE,157,0.0,0.0,98,0.02,,,0.06,weatherlink.com 1.10,2019-01-18 01:00:32,
2019-01-18 02:05:32,40.7,40.0,29.83,SSE,157,0.0,0.0,98,0.02,,,0.06,weatherlink.com 1.10,2019-01-18 01:05:32,
2019-01-18 02:10:32,40.7,40.0,29.83,SSE,157,0.0,0.0,98,0.02,,,0.06,weatherlink.com 1.10,2019-01-18 01:10:32,
2019-01-18 02:15:32,40.7,40.0,29.83,SSE,157,0.0,0.0,98,0.02,,,0.06,weatherlink.com 1.10,2019-01-18 01:15:32,
2019-01-18 02:20:32,40.8,40.0,29.83,SSE,157,0.0,0.0,98,0.02,,,0.06,weatherlink.com 1.10,2019-01-18 01:20:32,
2019-01-18 02:25:32,40.8,40.0,29.83,SSE,157,0.0,0.0,98,0.02,,,0.06,weatherlink.com 1.10,2019-01-18 01:25:32,
2019-01-18 02:30:33,40.8,40.0,29.83,SSE,157,0.0,0.0,98,0.02,,,0.06,weatherlink.com 1.10,2019-01-18 01:30:33,
2019-01-18 02:35:33,40.8,40.0,29.83,SSE,157,0.0,0.0,98,0.02,,,0.06,weatherlink.com 1.10,2019-01-18 01:35:33,
2019-01-18 02:40:33,40.8,40.0,29.84,SSE,157,0.0,0.0,98,0.02,,,0.06,weatherlink.com 1.10,2019-01-18 01:40:33,
2019-01-18 02:45:33,40.9,40.0,29.83,SSE,157,0.0,0.0,98,0.02,,,0.07,weatherlink.com 1.10,2019-01-18 01:45:33,
2019-01-18 02:50:33,41.0,41.0,29.83,SSE,157,0.0,0.0,98,0.03,,,0.08,weatherlink.com 1.10,2019-01-18 01:50:33,
2019-01-18 02:55:34,41.1,41.0,29.83,SSE,157,0.0,0.0,98,0.04,,,0.09,weatherlink.com 1.10,2019-01-18 01:55:34,
2019-01-18 03:00:34,41.1,41.0,29.83,SSE,157,0.0,0.0,98,0.03,,,0.09,weatherlink.com 1.10,2019-01-18 02:00:34,
2019-01-18 03:05:34,41.2,41.0,29.83,SSE,157,0.0,0.0,98,0.04,,,0.09,weatherlink.com 1.10,2019-01-18 02:05:34,
2019-01-18 03:10:34,41.1,41.0,29.83,SSE,157,0.0,0.0,98,0.04,,,0.09,weatherlink.com 1.10,2019-01-18 02:10:34,
2019-01-18 03:15:35,41.1,41.0,29.83,SSE,157,0.0,0.0,98,0.04,,,0.09,weatherlink.com 1.10,2019-01-18 02:15:35,
2019-01-18 03:20:35,41.0,41.0,29.83,SSE,157,0.0,0.0,98,0.03,,,0.09,weatherlink.com 1.10,2019-01-18 02:20:35,
2019-01-18 03:25:35,41.0,41.0,29.82,SSE,157,0.0,0.0,98,0.04,,,0.10,weatherlink.com 1.10,2019-01-18 02:25:35,
2019-01-18 03:30:36,41.1,41.0,29.82,SSE,157,0.0,0.0,98,0.04,,,0.10,weatherlink.com 1.10,2019-01-18 02:30:36,
2019-01-18 03:35:37,41.2,41.0,29.81,SSE,157,0.0,0.0,98,0.05,,,0.11,weatherlink.com 1.10,2019-01-18 02:35:37,
2019-01-18 03:40:37,41.2,41.0,29.81,SSE,157,0.0,0.0,98,0.05,,,0.11,weatherlink.com 1.10,2019-01-18 02:40:37,
2019-01-18 03:45:38,41.2,41.0,29.81,SSE,157,0.0,0.0,98,0.04,,,0.11,weatherlink.com 1.10,2019-01-18 02:45:38,
2019-01-18 03:50:38,41.0,41.0,29.81,SSE,157,0.0,0.0,98,0.03,,,0.11,weatherlink.com 1.10,2019-01-18 02:50:38,
2019-01-18 03:55:39,40.9,40.0,29.81,SSE,157,0.0,0.0,98,0.02,,,0.11,weatherlink.com 1.10,2019-01-18 02:55:39,
2019-01-18 04:00:39,40.7,40.0,29.81,SSE,157,0.0,0.0,98,0.02,,,0.11,weatherlink.com 1.10,2019-01-18 03:00:39,
2019-01-18 04:05:39,40.7,40.0,29.81,SSE,157,0.0,0.0,98,0.02,,,0.11,weatherlink.com 1.10,2019-01-18 03:05:39,
2019-01-18 04:10:39,40.7,40.0,29.81,SSE,157,0.0,0.0,98,0.02,,,0.11,weatherlink.com 1.10,2019-01-18 03:10:39,
2019-01-18 04:15:39,40.8,40.0,29.81,SSE,157,0.0,0.0,98,0.02,,,0.11,weatherlink.com 1.10,2019-01-18 03:15:39,
2019-01-18 04:20:39,40.8,41.0,29.81,SSE,157,0.0,0.0,99,0.02,,,0.11,weatherlink.com 1.10,2019-01-18 03:20:39,
2019-01-18 04:25:39,40.9,41.0,29.81,SSE,157,0.0,0.0,99,0.01,,,0.11,weatherlink.com 1.10,2019-01-18 03:25:39,
2019-01-18 04:30:40,40.9,41.0,29.81,SSE,157,0.0,0.0,99,0.01,,,0.11,weatherlink.com 1.10,2019-01-18 03:30:40,
2019-01-18 04:35:40,40.9,41.0,29.81,SSE,157,0.0,0.0,99,0.00,,,0.11,weatherlink.com 1.10,2019-01-18 03:35:40,
2019-01-18 04:40:40,40.8,41.0,29.81,SSE,157,0.0,0.0,99,0.00,,,0.11,weatherlink.com 1.10,2019-01-18 03:40:40,
2019-01-18 04:45:40,40.7,40.0,29.81,SSE,157,0.0,0.0,98,0.00,,,0.11,weatherlink.com 1.10,2019-01-18 03:45:40,
2019-01-18 04:50:40,40.8,40.0,29.81,SSE,157,0.0,0.0,98,0.00,,,0.11,weatherlink.com 1.10,2019-01-18 03:50:40,
2019-01-18 04:55:40,40.8,41.0,29.81,SSE,157,0.0,0.0,99,0.00,,,0.11,weatherlink.com 1.10,2019-01-18 03:55:40,
2019-01-18 05:00:41,40.8,41.0,29.81,SSE,157,0.0,0.0,99,0.00,,,0.11,weatherlink.com 1.10,2019-01-18 04:00:41,
2019-01-18 05:05:41,40.9,41.0,29.80,SSE,157,0.0,0.0,99,0.00,,,0.11,weatherlink.com 1.10,2019-01-18 04:05:41,
2019-01-18 05:10:41,41.0,41.0,29.80,SSE,157,0.0,0.0,99,0.00,,,0.11,weatherlink.com 1.10,2019-01-18 04:10:41,
2019-01-18 05:15:41,41.0,41.0,29.80,SSE,157,0.0,0.0,99,0.00,,,0.11,weatherlink.com 1.10,2019-01-18 04:15:41,
2019-01-18 05:20:42,41.0,41.0,29.80,SSE,157,0.0,0.0,99,0.00,,,0.11,weatherlink.com 1.10,2019-01-18 04:20:42,
2019-01-18 05:25:43,40.9,41.0,29.79,SSE,157,0.0,0.0,99,0.00,,,0.11,weatherlink.com 1.10,2019-01-18 04:25:43,
2019-01-18 05:30:45,40.9,41.0,29.79,SSE,157,0.0,0.0,99,0.00,,,0.11,weatherlink.com 1.10,2019-01-18 04:30:45,
2019-01-18 05:35:45,41.0,41.0,29.79,SSE,157,0.0,0.0,99,0.00,,,0.11,weatherlink.com 1.10,2019-01-18 04:35:45,
2019-01-18 05:40:45,41.0,41.0,29.79,SSE,157,0.0,0.0,99,0.00,,,0.11,weatherlink.com 1.10,2019-01-18 04:40:45,
2019-01-18 05:45:45,40.9,41.0,29.80,SSE,157,0.0,1.0,99,0.00,,,0.11,weatherlink.com 1.10,2019-01-18 04:45:45,
2019-01-18 05:50:45,40.8,41.0,29.80,ENE,67,0.0,3.0,99,0.00,,,0.11,weatherlink.com 1.10,2019-01-18 04:50:45,
2019-01-18 05:55:46,40.8,41.0,29.80,ENE,67,1.0,3.0,99,0.00,,,0.11,weatherlink.com 1.10,2019-01-18 04:55:46,
2019-01-18 06:00:48,40.8,41.0,29.80,ENE,67,1.0,3.0,99,0.00,,,0.11,weatherlink.com 1.10,2019-01-18 05:00:48,
2019-01-18 06:05:49,0.00,0.00,29.81,North,,0.00,-999.0,,0.00,,,0.11,weatherlink.com 1.10,2019-01-18 05:05:49,
2019-01-18 06:10:50,0.00,0.00,29.81,North,,0.00,-999.0,,0.00,,,0.11,weatherlink.com 1.10,2019-01-18 05:10:50,
2019-01-18 06:15:52,0.00,0.00,29.81,North,,0.00,-999.0,,0.00,,,0.11,weatherlink.com 1.10,2019-01-18 05:15:52,
2019-01-18 06:20:53,0.00,0.00,29.81,North,,0.00,-999.0,,0.00,,,0.11,weatherlink.com 1.10,2019-01-18 05:20:53,
2019-01-18 06:25:55,0.00,0.00,29.81,North,,0.00,-999.0,,0.00,,,0.11,weatherlink.com 1.10,2019-01-18 05:25:55,
2019-01-18 06:30:57,0.00,0.00,29.81,North,,0.00,-999.0,,0.00,,,0.11,weatherlink.com 1.10,2019-01-18 05:30:57,
2019-01-18 06:35:58,0.00,0.00,29.82,North,,0.00,-999.0,,0.00,,,0.11,weatherlink.com 1.10,2019-01-18 05:35:58,
2019-01-18 06:45:01,0.00,0.00,29.82,North,,0.00,-999.0,,0.00,,,0.11,weatherlink.com 1.10,2019-01-18 05:45:01,
2019-01-18 06:50:02,0.00,0.00,29.82,North,,0.00,-999.0,,0.00,,,0.11,weatherlink.com 1.10,2019-01-18 05:50:02,
2019-01-18 06:55:03,0.00,0.00,29.82,North,,0.00,-999.0,,0.00,,,0.11,weatherlink.com 1.10,2019-01-18 05:55:03,
2019-01-18 07:00:05,0.00,0.00,29.82,North,,0.00,-999.0,,0.00,,,0.11,weatherlink.com 1.10,2019-01-18 06:00:05,
2019-01-18 07:05:06,0.00,0.00,29.82,North,,0.00,-999.0,,0.00,,,0.11,weatherlink.com 1.10,2019-01-18 06:05:06,
2019-01-18 07:10:08,0.00,0.00,29.82,North,,0.00,-999.0,,0.00,,,0.11,weatherlink.com 1.10,2019-01-18 06:10:08,
2019-01-18 07:15:09,0.00,0.00,29.82,North,,0.00,-999.0,,0.00,,,0.11,weatherlink.com 1.10,2019-01-18 06:15:09,
2019-01-18 07:20:10,0.00,0.00,29.83,North,,0.00,-999.0,,0.00,,,0.11,weatherlink.com 1.10,2019-01-18 06:20:10,
2019-01-18 07:25:12,0.00,0.00,29.83,North,,0.00,-999.0,,0.00,,,0.11,weatherlink.com 1.10,2019-01-18 06:25:12,
2019-01-18 07:30:14,0.00,0.00,29.83,North,,0.00,-999.0,,0.00,,,0.11,weatherlink.com 1.10,2019-01-18 06:30:14,
2019-01-18 07:35:15,0.00,0.00,29.84,North,,0.00,-999.0,,0.00,,,0.11,weatherlink.com 1.10,2019-01-18 06:35:15,
2019-01-18 07:40:17,0.00,0.00,29.84,North,,0.00,-999.0,,0.00,,,0.11,weatherlink.com 1.10,2019-01-18 06:40:17,
2019-01-18 07:45:18,0.00,0.00,29.84,North,,0.00,-999.0,,0.00,,,0.11,weatherlink.com 1.10,2019-01-18 06:45:18,
2019-01-18 07:50:19,0.00,0.00,29.84,North,,0.00,-999.0,,0.00,,,0.11,weatherlink.com 1.10,2019-01-18 06:50:19,
2019-01-18 07:55:21,0.00,0.00,29.84,North,,0.00,-999.0,,0.00,,,0.11,weatherlink.com 1.10,2019-01-18 06:55:21,
2019-01-18 08:00:22,0.00,0.00,29.84,North,,0.00,-999.0,,0.00,,,0.11,weatherlink.com 1.10,2019-01-18 07:00:22,
2019-01-18 08:05:24,0.00,0.00,29.84,North,,0.00,-999.0,,0.00,,,0.11,weatherlink.com 1.10,2019-01-18 07:05:24,
2019-01-18 08:10:25,0.00,0.00,29.85,North,,0.00,-999.0,,0.00,,,0.11,weatherlink.com 1.10,2019-01-18 07:10:25,
2019-01-18 08:15:27,0.00,0.00,29.85,North,,0.00,-999.0,,0.00,,,0.11,weatherlink.com 1.10,2019-01-18 07:15:27,
2019-01-18 08:20:28,0.00,0.00,29.85,North,,0.00,-999.0,,0.00,,,0.11,weatherlink.com 1.10,2019-01-18 07:20:28,
2019-01-18 08:25:30,0.00,0.00,29.86,North,,0.00,-999.0,,0.00,,,0.11,weatherlink.com 1.10,2019-01-18 07:25:30,
2019-01-18 08:30:32,0.00,0.00,29.85,North,,0.00,-999.0,,0.00,,,0.11,weatherlink.com 1.10,2019-01-18 07:30:32,
2019-01-18 08:35:34,0.00,0.00,29.86,North,,0.00,-999.0,,0.00,,,0.11,weatherlink.com 1.10,2019-01-18 07:35:34,
2019-01-18 08:40:35,0.00,0.00,29.86,North,,0.00,-999.0,,0.00,,,0.11,weatherlink.com 1.10,2019-01-18 07:40:35,
2019-01-18 08:45:37,0.00,0.00,29.86,North,,0.00,-999.0,,0.00,,,0.11,weatherlink.com 1.10,2019-01-18 07:45:37,
2019-01-18 08:50:38,40.4,40.0,29.86,ENE,67,0.0,0.0,98,0.00,,,0.11,weatherlink.com 1.10,2019-01-18 07:50:38,
2019-01-18 08:55:39,40.3,40.0,29.86,ENE,67,0.0,0.0,98,0.00,,,0.11,weatherlink.com 1.10,2019-01-18 07:55:39,
2019-01-18 09:00:40,40.2,40.0,29.87,ENE,67,0.0,1.0,98,0.00,,,0.11,weatherlink.com 1.10,2019-01-18 08:00:40,
2019-01-18 09:05:41,40.2,40.0,29.87,ENE,67,0.0,1.0,99,0.00,,,0.11,weatherlink.com 1.10,2019-01-18 08:05:41,
2019-01-18 09:10:42,40.3,40.0,29.88,ENE,67,0.0,0.0,98,0.00,,,0.11,weatherlink.com 1.10,2019-01-18 08:10:42,
2019-01-18 09:15:44,40.3,40.0,29.88,ENE,67,0.0,0.0,99,0.00,,,0.11,weatherlink.com 1.10,2019-01-18 08:15:44,
2019-01-18 09:20:44,40.4,40.0,29.89,ENE,67,0.0,0.0,99,0.00,,,0.11,weatherlink.com 1.10,2019-01-18 08:20:44,
2019-01-18 09:25:45,40.6,40.0,29.89,ENE,67,0.0,0.0,99,0.00,,,0.11,weatherlink.com 1.10,2019-01-18 08:25:45,
2019-01-18 09:30:46,40.8,41.0,29.89,ENE,67,0.0,0.0,99,0.00,,,0.11,weatherlink.com 1.10,2019-01-18 08:30:46,
2019-01-18 09:35:47,40.9,41.0,29.90,ENE,67,0.0,0.0,99,0.00,,,0.11,weatherlink.com 1.10,2019-01-18 08:35:47,
2019-01-18 09:40:48,41.0,41.0,29.90,ENE,67,0.0,0.0,99,0.00,,,0.11,weatherlink.com 1.10,2019-01-18 08:40:48,
2019-01-18 09:45:48,41.1,41.0,29.90,ENE,67,0.0,0.0,99,0.00,,,0.11,weatherlink.com 1.10,2019-01-18 08:45:48,
2019-01-18 09:50:48,41.2,41.0,29.90,ENE,67,0.0,0.0,99,0.00,,,0.11,weatherlink.com 1.10,2019-01-18 08:50:48,
2019-01-18 09:55:50,41.5,41.0,29.91,ENE,67,0.0,1.0,99,0.00,,,0.11,weatherlink.com 1.10,2019-01-18 08:55:50,
2019-01-18 10:00:51,41.4,41.0,29.91,ENE,67,0.0,2.0,99,0.00,,,0.11,weatherlink.com 1.10,2019-01-18 09:00:51,
2019-01-18 10:05:52,41.3,41.0,29.92,ENE,67,0.0,1.0,99,0.00,,,0.11,weatherlink.com 1.10,2019-01-18 09:05:52,
2019-01-18 10:10:52,41.3,41.0,29.92,ENE,67,0.0,0.0,99,0.00,,,0.11,weatherlink.com 1.10,2019-01-18 09:10:52,
2019-01-18 10:15:53,41.3,41.0,29.92,ENE,67,0.0,0.0,99,0.00,,,0.11,weatherlink.com 1.10,2019-01-18 09:15:53,
2019-01-18 10:20:54,41.3,41.0,29.93,ENE,67,0.0,0.0,99,0.00,,,0.11,weatherlink.com 1.10,2019-01-18 09:20:54,
2019-01-18 10:25:55,41.4,41.0,29.93,ENE,67,0.0,0.0,99,0.00,,,0.11,weatherlink.com 1.10,2019-01-18 09:25:55,
2019-01-18 10:30:57,41.6,41.0,29.93,ENE,67,0.0,0.0,99,0.00,,,0.11,weatherlink.com 1.10,2019-01-18 09:30:57,
2019-01-18 10:35:59,41.7,42.0,29.93,ENE,67,0.0,0.0,99,0.00,,,0.11,weatherlink.com 1.10,2019-01-18 09:35:59,
2019-01-18 10:40:59,41.8,42.0,29.94,ENE,67,0.0,0.0,99,0.00,,,0.11,weatherlink.com 1.10,2019-01-18 09:40:59,
2019-01-18 10:45:00,41.9,42.0,29.94,ENE,67,0.0,0.0,99,0.00,,,0.11,weatherlink.com 1.10,2019-01-18 09:45:00,
2019-01-18 10:50:01,42.0,42.0,29.94,ENE,67,0.0,0.0,99,0.00,,,0.11,weatherlink.com 1.10,2019-01-18 09:50:01,
2019-01-18 10:55:01,42.2,42.0,29.95,ENE,67,0.0,0.0,99,0.00,,,0.11,weatherlink.com 1.10,2019-01-18 09:55:01,
2019-01-18 11:00:02,42.2,42.0,29.95,ENE,67,0.0,0.0,99,0.00,,,0.11,weatherlink.com 1.10,2019-01-18 10:00:02,
2019-01-18 11:05:03,42.3,42.0,29.95,ENE,67,0.0,0.0,99,0.00,,,0.11,weatherlink.com 1.10,2019-01-18 10:05:03,
2019-01-18 11:10:04,42.3,42.0,29.95,ENE,67,0.0,0.0,99,0.00,,,0.11,weatherlink.com 1.10,2019-01-18 10:10:04,
2019-01-18 11:15:04,42.3,42.0,29.95,ENE,67,0.0,0.0,99,0.00,,,0.11,weatherlink.com 1.10,2019-01-18 10:15:04,
2019-01-18 11:20:05,42.4,42.0,29.96,ENE,67,0.0,0.0,99,0.00,,,0.11,weatherlink.com 1.10,2019-01-18 10:20:05,
2019-01-18 11:25:05,42.4,42.0,29.96,ENE,67,0.0,0.0,99,0.00,,,0.11,weatherlink.com 1.10,2019-01-18 10:25:05,
2019-01-18 11:30:06,42.4,42.0,29.96,ENE,67,0.0,0.0,99,0.00,,,0.11,weatherlink.com 1.10,2019-01-18 10:30:06,
2019-01-18 11:35:07,42.4,42.0,29.96,ENE,67,0.0,0.0,99,0.00,,,0.11,weatherlink.com 1.10,2019-01-18 10:35:07,
2019-01-18 11:40:07,42.4,42.0,29.96,ENE,67,0.0,0.0,99,0.00,,,0.11,weatherlink.com 1.10,2019-01-18 10:40:07,